Volver al catálogo

YAOGAN-50

ActivoMilitarLEO
NORAD 67433·PAYLOAD·🇨🇳 China

Lanzado Jan 13, 2026 desde Taiyuan Satellite Launch Center

Loading…

Próximos Pases (próximas 24 horas)

TLE

ActualizadoSource: Space-Track

Época: Sep 14, 2026, 13:46 UTC

1 67433U 26006A   26257.57394948  .00000315  00000-0  11480-3 0  9994
2 67433 142.0416 287.7440 0001058 288.2462  71.8142 13.83249634 33812

Sigue YAOGAN-50 en tiempo real con AllMySat

Download on the App Store